1st Responders/1st Detectors/Storm Spotters Weather Summary for Harrison County, KY

Forecast Maps


Reg. NEXRAD Animation


National Fire Danger: Day 1 & 2 Map

Current NWS Watch/Warnings

SPC Convective Day 1 Outlook


Day 2 Outlook

(Click images to enlarge|Page will refresh every 5 minutes)
UK Ag. Weather Center Desktop Severe Weather Service[HERE]
Harrison County, KY Hazardous Weather Outlook Webcast
(9 AM to 9 PM Mon-Fri)
[Fast]
[Dial-up]


UKAWC 1st Detectors/1st Responders Precision Weather Forecast For HARRISON County, Kentucky
(based on the NWS County Digital Forecast)

ISSUED AT 09:00 UTC ON FRIDAY SEP 30 2022
DAY FRIDAY
EDT 3HR 6A 7A 8A 9A 10A 11A NOON 1P 2P 3P 4P 5P 6P 7P
MAX/MIN -- -- 43° -- -- -- -- -- -- -- -- -- -- 70°
TEMP 43° 43° 43° 45° 52° 58° 63° 65° 67° 70° 67° 67° 67° 63°
SKY COVER 2% 2% 2% 1% 1% 1% 2% 3% 10% 12% 19% 25% 34% 29%
Clouds
DEW PT 43° 43° 41° 45° 47° 49° 47° 47° 47° 45° 45° 45° 45° 45°
RH 99% 100% 96% 96% 83% 69% 58% 51% 46% 42% 45% 44% 45% 51%
POP 12HR -- -- 0% -- -- -- -- -- -- -- -- -- -- --
RAIN/SNOW (liq.equ) -- -- 0.00in -- -- -- -- -- 0.00in -- -- -- -- --
SNOWFALL -- -- 0in -- -- -- -- -- 0in -- -- -- -- --
WIND SPEED(MPH) 5 5 5 6 7 7 8 9 9 9 9 9 9 7
WIND Gust(MPH) 7 7 7 13 13 14 15 16 17 16 17 16 16 14
WIND DIR NE NE NE NE NE NE NE NE NE NE NE NE NE NE
DEW Lgt Dew Lgt Dew Lgt Dew Lgt Dew Lgt Dew -- -- -- -- -- -- -- -- --
HeatIndex 40 40 40 45 52 58 63 65 67 70 67 67 67 63
Rain -- -- -- -- -- -- -- -- -- -- -- -- -- --
Rain Showers -- -- -- -- -- -- -- -- -- -- -- -- -- --
WIND CHILL 40° 40° 40° 42° -- -- -- -- -- -- -- -- -- --
SPRAY COND
DRY COND
LIVESTOCK HEATSTRESS 43.09 43.00 43.35 45.30 52.64 58.14 62.03 63.33 64.56 66.43 64.52 64.47 64.52 61.87



DAY FRIDAY SATURDAY SUNDAY MONDAY TUESDAY WEDNESDAY THURSDAY
EDT 6HR 8P 9P 10P 11P MIDN 1A 2A 3A 4A 5A 6A 7A 8A 9A 10A 11A NOON 1P 2P 3P 4P 5P 8P 11P 2A 5A 8A 11A 2P 5P 8P 2A 8A 2P 8P 2A 8A 2P 8P 2A 8A 2P 8P 2A 8A 2P 8P
MAX/MIN -- -- -- -- -- -- -- -- -- -- -- -- 49° -- -- -- -- -- -- -- -- 63° -- -- -- -- 50° -- -- 67° -- -- 45° 68° -- -- 43° 70° -- -- 43° 72° -- -- 47° 70° --
TEMP 59° 56° 54° 54° 52° 52° 52° 52° 50° 50° 49° 50° 49° 52° 56° 58° 61° 61° 61° 61° 63° 63° 59° 54° 54° 52° 52° 58° 63° 65° 61° 52° 47° 65° 59° 47° 43° 65° 58° 47° 43° 68° 63° 52° 49° 67° 59°
SKY COVER 36% 39% 42% 45% 48% 51% 64% 63% 62% 67% 72% 78% 83% 84% 85% 86% 85% 84% 83% 81% 79% 77% 73% 69% 66% 70% 67% 44% 54% 50% 52% 14% 11% 15% 11% 9% 12% 11% 8% 16% 34% 32% 33% 33% 49% 28% 26%
Clouds
DEW PT 45° 45° 43° 43° 43° 43° 43° 43° 43° 43° 43° 43° 43° 43° 45° 45° 45° 47° 47° 47° 49° 49° 49° 50° 49° 49° 49° 54° 54° 54° 52° 47° 45° 49° 47° 45° 43° 45° 45° 43° 40° 45° 45° 43° 45° 49° 47°
RH 57% 64% 66% 69% 68% 68% 68% 71% 74% 73% 80% 76% 79% 73% 66% 61% 57% 57% 58% 60% 60% 60% 66% 86% 86% 89% 89% 83% 72% 68% 72% 86% 95% 56% 64% 92% 96% 47% 60% 82% 88% 43% 54% 73% 85% 50% 64%
POP 12HR 0% -- -- -- -- -- -- -- -- -- -- -- 16% -- -- -- -- -- -- -- -- -- 32% -- -- -- 27% -- -- -- 13% -- 4% -- 5% -- 6% -- 2% -- 2% -- 4% -- 6% -- 7%
RAIN/SNOW (liq.equ) 0.00in -- -- -- -- -- 0.00in -- -- -- -- -- 0.03in -- -- -- -- -- 0.07in -- -- -- 0.04in -- 0.02in -- 0.00in -- 0.00in -- 0.00in -- -- -- -- -- -- -- -- -- -- -- -- -- -- -- --
SNOWFALL 0in -- -- -- -- -- 0in -- -- -- -- -- 0in -- -- -- -- -- 0in -- -- -- 0in -- 0in -- 0in -- 0in -- 0in -- -- -- -- -- -- -- -- -- -- -- -- -- -- -- --
WIND SPEED(MPH) 7 7 7 7 7 7 7 7 7 7 8 8 8 9 10 13 14 14 14 14 13 10 9 8 7 7 8 10 13 10 8 6 6 9 6 2 2 6 2 1 1 6 1 1 2 7 6
WIND DIR NE NE NE N N N N N N N N N N N N N N N N N N N N N N N N N NE NE NE NE NE NE NE NE NE NE NE SE S SW S S W NW N
HeatIndex 59 56 54 54 52 52 52 52 50 50 49 50 49 52 56 58 61 61 61 61 63 63 59 54 54 52 52 58 63 65 61 52 47 65 59 47 42 65 58 47 43 68 63 52 49 67 59
Rain -- -- -- -- -- -- -- -- -- -- -- -- Chance -- Chance -- -- -- -- -- -- -- -- -- -- -- -- -- -- -- -- -- -- -- -- -- -- -- -- -- -- -- -- -- -- -- --
Rain Showers -- -- -- -- -- -- -- -- -- -- -- -- -- Chance -- Chance Chance Chance Chance Chance Chance Chance Chance Chance Slight Chance Slight Chance -- -- -- -- -- -- -- -- -- -- -- -- -- -- -- -- -- -- -- -- --
WIND CHILL -- -- -- -- -- -- -- -- -- -- -- -- -- -- -- -- -- -- -- -- -- -- -- -- -- -- -- -- -- -- -- -- -- -- -- -- -- -- -- -- -- -- -- -- -- -- --
SPRAY COND
DRY COND
LIVESTOCK HEATSTRESS 58.95 56.55 54.90 54.82 53.20 53.20 53.20 53.08 51.26 51.31 50.08 51.16 50.13 53.01 56.52 58.17 60.48 60.48 60.49 60.52 62.08 62.08 58.96 54.37 54.37 52.41 52.41 58.07 62.35 63.91 60.66 52.52 47.32 63.50 58.96 47.52 43.35 63.19 58.18 48.17 44.04 65.12 61.94 53.01 49.81 64.75 58.96

Click on individual weather variable above in left-hand column (ie., TEMP, RH, QPF 12HR) to view state forecast maps






NWS 48 Hr. Forecast Maps,

Regional Hourly Observations For HARRISON County, Kentucky
Issued at 500 AM EDT FRI SEP 30 2022
NORTHEAST KENTUCKY
  
CITY           SKY/WX    TMP DP  RH WIND       PRES   REMARKS
LEXINGTON      CLEAR     45  42  89 NE6       30.22F                  
COVINGTON      CLEAR     48  44  86 NE8       30.25F                  
FRANKFORT      CLEAR     48  44  86 NE5       30.22F                  


Current NOWCAST not available:
Nowcasts are not issued routinely during fair weather. Only when
precipitation or other significant weather is occuring in this county will these
forecasts be issued. Currently, there is no short term forecast in effect.


Fire Weather Forecast For HARRISON County, KY
Provided by the National Weather Service:

Issued at: Fri Sep 30 05:05:01 EDT 2022


                      Today        Tonight      Sat          

CLOUD COVER           Mclear       Pcldy        Mcldy        
PRECIP TYPE           None         None         Showers      
CHANCE PRECIP (%)     0            0            30           
TEMP (24H TREND)      72 (+6)      49 (+5)      65           
RH % (24H TREND)      36 (-13)     85 (-12)     51           
20FTWND-VAL/AM(MPH)   NE  6                     N  9 G20     
20FTWND-RDG/PM(MPH)   NE  9        NE  5        N 10 G21     
PRECIP AMOUNT         0.00         0.00         0.10         
MIXING HGT(FT-AGL/MSL)3941                      4461         
TRANSPORT WND (MPH)   NE 22                     N 28         
VENT RATE (KT-FT)     74119                     116335       
DISPERSION            Good                      Excellent    
DSI                   SLGT UNSTBL  SLGT UNSTBL  SLGT UNSTBL  
LAL                   1            1            1            
HAINES INDEX          4            4            2            
ADI EARLY             49 GEN GOOD  12 POOR      50 GEN GOOD  
ADI LATE              79 GOOD      14 GEN POOR  62 GOOD      
MAX LVORI EARLY       6            3            4            
MAX LVORI LATE        1            4            2            

REMARKS...ADI IS ATMOSPHERIC DISPERSION INDEX BY LAVDAS.        
LVORI IS LOW VISIBILITY OCCURRENCE RISK INDEX.

.SUNDAY...Mostly cloudy. A 20 percent chance of rain showers.
Lows in the lower 50s. Highs in the upper 60s. North winds around
10 mph. 
.MONDAY...Mostly clear. Lows in the upper 40s. Highs around 70.
North winds around 5 mph. 
.TUESDAY...Mostly clear. Lows in the mid 40s. Highs in the lower
70s. Northeast winds up to 5 mph. 
.WEDNESDAY...Mostly clear. Lows in the lower 40s. Highs in the
mid 70s. Southwest winds up to 5 mph. 
.THURSDAY...Mostly clear. Lows in the upper 40s. Highs in the
lower 70s. Northwest winds up to 10 mph. 

SPC's Fire Weather Web Tool (Excellent!), SPC's Fire Weather Outlooks, NWS Fire Weather WEB, Fire Danger Class Map,
Keetch-Byram Drought Index, ROMAN Web, Haines Index ,
WFAS's 10-hr Dead Fuel Moist., WFAS's 100-hr Dead Fuel Moist., Probablity of Ignition, Visual blackness Map, Palmer Drought Index, HPC's Rainfall Forecast Maps


Hazardous Weather Outlook For HARRISON County, Kentucky
324 AM EDT Fri Sep 30 2022 /224 AM CDT Fri Sep 30 2022/

 DAY ONE  Today and Tonight.

No hazardous weather is expected at this time.

 DAYS TWO THROUGH SEVEN  Saturday through Thursday.

No hazardous weather is expected at this time.

 SPOTTER INFORMATION STATEMENT  

Spotter activation is not anticipated.


Latest HARRISON County, Kentucky Watches, Warnings and Advisories.
Additional Drought Info.: UKAWC Drought Page, Kentucky Drought Watch


7-Day Forecast For HARRISON County, KY

TODAY
Sunny. Highs around 70. Northeast winds 5 to 10 mph.

TONIGHT
Partly cloudy in the evening, then becoming mostly cloudy. Lows in the upper 40s. Northeast winds 5 to 10 mph.

SATURDAY
Mostly cloudy with a 40 percent chance of showers. Highs in the lower 60s. North winds 10 to 15 mph with gusts up to 30 mph.

SATURDAY NIGHT
Mostly cloudy with a 40 percent chance of showers. Lows in the lower 50s. North winds around 10 mph with gusts up to 25 mph.

SUNDAY
Partly sunny. A slight chance of showers in the morning. Highs in the mid 60s. North winds 10 to 15 mph. Chance of rain 20 percent.

SUNDAY NIGHT
Mostly cloudy in the evening, then clearing. Lows in the mid 40s.

MONDAY
Sunny. Highs around 70.

MONDAY NIGHT
Mostly clear. Lows in the lower 40s.

TUESDAY
Sunny. Highs around 70.

TUESDAY NIGHT
Mostly clear. Lows in the lower 40s.

WEDNESDAY
Sunny. Highs in the lower 70s.

WEDNESDAY NIGHT
Mostly clear in the evening, then becoming partly cloudy. Lows in the upper 40s.

THURSDAY
Mostly sunny. Highs in the lower 70s.

Ag Weather Center, Department of Biosystems & Agricultural Engineering, University of Kentucky